Temperature
17 18 19 18 17 16 15 14 14 14 12 11 11 11 11 11 11 11 10 10 10 11 11 11 11 11 11 12 12 12 13 13 14 14 14 14 13 13 13 12 12 12 11 11
18 19 18 17 16 15 14 13 13 12 11 11 11 11 11 10 10 10 10 10 10 10 10 10 10 10 10 10 11 11 11 12 12 13 13 13 13 13 12 12 12 12 11 11
17 17 18 15 13 13 12 12 12 11 11 11 10 10 10 10 9 10 10 10 10 10 10 10 10 10 10 10 10 10 10 10 11 11 11 12 12 12 12 12 12 11 11 11
15 17 17 13 13 13 12 11 11 11 10 10 9 9 9 10 10 10 10 10 10 10 10 10 10 10 10 9 9 9 9 9 10 10 10 10 11 11 12 11 11 11 11 11
14 16 14 13 13 12 12 11 10 10 10 9 9 9 10 10 10 10 9 9 10 10 10 10 10 10 9 9 9 9 9 9 9 9 9 9 10 10 11 11 11 11 11 11
14 16 15 12 12 12 12 11 10 9 9 9 8 7 8 10 9 9 9 9 9 9 9 10 10 9 9 9 9 9 9 9 9 9 9 9 9 9 10 10 11 11 11 11
13 14 12 11 11 12 11 10 10 10 9 9 8 7 8 9 9 9 9 9 9 9 9 9 9 9 9 9 9 8 8 8 8 8 8 8 8 9 9 10 10 10 10 10
12 13 12 10 10 10 9 10 10 10 9 9 8 8 9 9 9 9 9 9 9 8 8 8 8 8 8 8 8 8 8 8 8 8 8 8 8 8 8 9 9 10 10 10
10 10 10 10 10 11 10 10 10 9 9 9 8 8 8 8 8 8 8 8 8 8 8 8 8 7 7 7 7 7 7 7 7 7 7 7 7 8 8 8 9 10 10 10
9 10 11 11 11 11 10 9 9 9 9 9 8 8 8 8 8 8 8 8 7 7 7 7 7 7 7 7 7 6 6 7 7 7 7 7 7 7 7 8 8 9 10 10
9 10 10 11 11 10 9 9 9 9 9 9 8 8 8 8 8 8 8 7 7 7 6 6 6 6 6 6 6 6 6 6 6 6 6 7 7 7 7 8 8 9 10 10
9 10 9 10 10 9 9 9 9 9 9 9 8 8 8 8 7 7 7 7 7 6 6 6 6 6 6 6 5 5 5 5 5 6 6 6 6 7 7 8 8 9 10 10
10 10 9 9 9 9 9 9 9 8 8 8 8 8 7 7 7 7 6 6 6 6 5 5 5 5 5 5 5 5 5 5 5 5 5 6 6 6 7 7 8 8 9 10
10 9 9 9 9 9 9 9 8 8 8 8 7 7 7 6 6 6 6 6 5 5 5 5 5 5 5 5 4 4 4 4 4 5 5 5 6 6 7 7 7 8 9 9
10 9 9 9 9 9 8 8 8 7 7 7 7 6 6 6 5 5 5 5 5 5 4 4 4 5 5 4 4 4 4 4 5 5 5 5 6 6 7 7 7 8 9 9
9 9 9 9 8 8 8 7 7 7 6 6 6 5 5 5 5 5 4 4 4 4 4 4 4 5 4 4 4 4 4 4 5 5 5 6 6 6 7 7 8 8 9 9
9 8 8 8 8 7 7 7 6 6 6 5 5 5 4 4 4 4 4 4 4 4 4 4 4 4 4 4 4 4 4 5 5 5 5 6 6 6 7 7 8 8 9 9
9 8 8 8 7 7 6 6 6 5 5 5 4 4 4 3 3 3 3 3 3 4 4 4 4 4 4 4 4 4 5 5 5 5 5 6 6 6 7 8 8 9 9 9
8 8 8 7 7 6 6 5 5 4 4 4 3 3 3 3 3 3 3 3 3 4 4 4 4 4 4 4 4 5 5 5 5 5 6 6 6 7 7 8 8 9 9 9
8 8 7 7 6 6 5 5 4 4 4 3 3 3 3 3 3 3 3 3 4 4 4 4 4 4 4 5 5 5 5 5 5 5 6 6 6 7 8 8 9 9 9 10
7 7 7 6 5 5 5 4 4 3 3 3 3 3 3 3 3 3 3 4 4 4 4 4 4 4 5 5 5 5 5 5 6 6 6 6 7 7 8 8 9 9 10 10
7 6 6 5 5 4 4 4 3 3 3 3 3 3 3 3 3 4 4 4 4 4 4 4 5 5 5 5 5 6 6 6 6 6 6 7 7 8 8 9 9 10 10 10
6 6 5 5 4 4 4 4 4 3 3 3 3 3 3 3 3 4 4 4 5 5 5 5 5 5 5 6 6 6 6 6 6 6 7 7 8 8 9 9 10 10 11 11
6 5 5 5 4 4 3 4 4 3 3 3 3 3 3 4 4 4 4 5 5 5 5 5 5 5 6 6 6 6 6 6 6 7 7 8 8 9 9 10 10 11 11 11
5 5 5 4 3 3 3 3 3 3 3 3 3 4 4 4 4 4 5 5 5 5 5 5 6 6 6 6 6 6 6 7 7 7 8 8 9 9 10 10 11 11 11 12
5 4 4 4 3 3 3 3 2 3 2 3 3 3 3 4 4 4 5 5 5 5 5 6 6 6 6 6 6 7 7 7 7 8 9 9 10 10 11 11 11 12 12 12
5 4 4 4 4 4 3 3 3 3 3 3 3 3 3 4 4 4 5 5 5 6 6 6 6 6 6 7 7 7 7 8 8 9 9 10 10 11 11 11 12 12 12 12
Wind_Speed
8 6 2 1 4 4 1 2 5 2 4 2 6 7 8 9 9 9 10 11 11 10 10 10 11 11 11 12 12 13 13 12 12 11 9 9 8 8 6 5 4 2 2 2
4 3 2 3 6 5 5 5 4 5 3 3 6 6 8 10 10 11 11 12 12 12 12 12 12 13 13 13 13 13 13 13 12 10 8 8 9 8 6 5 4 2 1 0
4 4 3 4 7 4 4 4 4 3 3 8 9 12 13 12 10 11 13 14 15 14 13 13 13 12 12 12 13 12 12 13 12 10 9 8 8 8 8 7 5 4 3 3
1 3 1 2 4 5 4 3 4 3 6 8 10 13 13 10 8 11 14 15 15 14 14 14 13 13 12 12 12 12 12 12 12 11 10 9 7 8 9 8 7 6 6 6
2 1 2 2 3 4 3 1 3 5 9 10 11 10 8 6 7 11 14 15 15 14 15 14 15 14 13 13 12 12 12 12 12 11 11 10 9 9 8 8 9 8 7 8
3 1 0 2 6 8 3 2 2 6 9 11 10 9 8 9 12 16 17 16 15 15 14 14 15 13 12 14 13 14 14 13 11 11 11 11 10 9 8 9 10 10 9 9
3 1 2 4 10 8 1 5 7 8 10 11 9 10 12 15 17 17 18 18 17 15 14 14 14 12 13 14 15 15 13 12 12 11 11 11 10 8 8 9 10 11 11 10
4 4 3 6 6 3 5 6 7 9 10 12 13 15 16 17 16 16 17 17 16 14 15 14 13 12 14 15 16 14 12 13 13 12 12 11 8 8 7 8 11 12 11 10
2 1 3 3 4 6 6 8 10 9 12 15 14 16 17 16 16 16 16 16 14 14 16 15 13 12 15 16 15 14 13 14 14 13 11 10 9 9 7 7 9 11 12 12
2 2 5 7 6 6 7 9 11 13 15 14 16 18 18 17 16 15 16 16 15 15 16 16 14 14 15 16 15 14 14 14 13 12 12 10 9 8 7 7 9 11 14 14
1 5 8 7 7 9 10 12 13 14 14 14 16 18 19 18 17 17 17 15 15 16 17 18 16 16 16 16 14 14 14 14 13 12 11 10 9 9 9 9 9 11 13 15
3 6 5 10 10 11 12 12 15 16 15 14 16 19 20 19 17 17 17 16 16 17 17 18 17 16 16 15 14 14 13 12 11 10 9 9 9 10 12 12 12 15 16 16
6 6 7 11 11 10 10 14 17 17 18 20 18 18 19 18 17 16 17 18 18 18 19 18 17 17 16 14 13 13 13 12 10 10 10 9 9 8 8 6 9 13 17 19
8 7 8 9 11 14 16 17 17 16 16 17 18 18 18 19 18 19 20 19 19 19 19 18 18 18 16 13 13 13 13 14 13 10 10 9 9 8 8 6 6 7 11 18
9 8 10 12 12 14 15 15 17 18 17 17 16 17 18 20 21 21 20 20 20 19 19 18 18 18 15 13 13 13 12 10 10 10 10 9 9 8 8 8 8 8 8 11
10 11 12 13 15 16 17 18 18 18 18 18 18 18 19 20 21 22 21 20 20 21 20 19 19 18 14 12 12 11 10 15 13 10 9 8 8 8 7 8 8 10 12 13
8 10 11 15 16 17 17 17 17 17 19 19 20 20 21 21 22 22 22 20 20 21 20 19 19 16 14 12 11 9 9 10 14 10 7 7 7 7 6 7 8 10 12 15
10 11 13 15 16 18 19 18 18 19 19 20 20 21 22 22 23 23 23 22 22 21 20 18 16 14 13 12 10 8 8 8 7 7 7 7 7 6 6 7 10 11 11 13
12 12 14 15 15 16 17 17 19 18 19 19 20 22 22 22 22 23 22 22 22 21 18 15 17 14 12 12 12 7 7 7 7 7 6 6 6 5 6 7 9 11 12 14
11 13 14 15 15 16 17 18 18 19 19 19 21 22 22 23 23 23 22 20 18 15 15 16 15 12 11 10 11 6 6 7 6 6 5 5 5 5 6 8 9 11 12 13
13 14 15 15 16 16 16 17 18 19 21 20 21 22 23 23 23 21 20 18 17 16 15 15 11 9 8 7 8 5 5 5 5 5 5 4 4 5 7 8 10 11 11 13
11 13 14 15 16 17 16 16 17 19 21 21 22 22 23 23 23 20 18 15 15 17 14 11 9 9 9 8 5 5 5 5 5 4 4 4 4 5 7 9 10 10 11 12
11 12 13 14 16 18 18 17 18 19 20 22 23 23 22 21 18 17 17 14 14 16 13 10 10 10 9 5 4 4 4 4 4 4 3 4 4 6 8 10 10 11 11 11
10 11 12 13 14 15 17 20 19 18 20 20 20 21 21 18 16 14 14 17 17 16 11 10 11 9 6 3 2 2 3 4 4 3 3 3 5 6 8 9 10 10 11 12
10 10 11 15 15 14 16 18 19 19 19 18 20 21 18 15 16 16 16 16 16 14 10 9 9 8 4 2 1 2 2 3 2 2 2 3 5 7 8 9 10 10 10 10
8 10 11 13 13 13 14 15 15 16 17 17 18 17 17 15 16 15 13 14 15 13 9 7 7 5 3 2 2 2 2 1 1 1 2 4 6 7 8 9 11 10 9 9
9 9 9 11 11 12 14 14 15 17 17 17 18 17 17 16 15 16 16 13 12 10 9 7 6 5 4 3 2 2 2 1 1 1 2 4 5 6 8 9 8 8 8 9
Wind_Direction
238 247 222 305 350 10 117 236 227 208 119 2 333 329 328 334 340 351 355 354 353 348 342 338 337 336 335 331 330 330 326 317 303 295 278 254 241 236 234 239 248 268 307 345
281 276 164 75 28 37 35 23 63 89 76 332 317 324 330 331 336 341 342 339 337 335 332 329 327 325 324 322 322 324 324 320 311 301 291 265 245 232 225 225 225 218 225 81
276 310 87 37 3 42 59 28 39 52 338 328 333 335 328 320 321 328 331 328 325 321 316 311 307 306 306 307 311 315 317 320 318 309 297 284 261 235 222 216 207 202 194 165
289 16 275 92 52 82 104 83 55 26 334 331 322 313 300 293 294 311 316 314 310 306 302 299 297 294 292 295 299 303 307 313 317 314 307 297 277 249 230 212 203 198 191 177
90 103 123 124 29 11 326 250 48 345 326 321 317 309 296 285 287 294 296 297 295 292 291 290 289 288 289 291 292 295 297 300 306 308 307 301 286 267 245 219 206 199 190 180
80 0 328 16 327 325 283 237 14 322 312 315 326 319 299 294 298 300 300 299 296 294 292 288 287 285 283 284 286 286 287 289 293 294 293 294 285 270 256 229 213 198 193 186
50 46 78 320 313 323 351 307 310 303 298 301 292 277 283 292 296 295 296 297 296 295 292 288 288 286 282 282 278 277 279 283 286 285 282 282 282 273 257 235 214 197 192 186
20 20 357 334 2 32 272 279 285 291 291 291 289 289 294 297 296 295 297 296 296 294 291 289 287 284 283 281 279 279 279 281 280 280 281 283 280 280 263 239 216 198 189 182
75 156 256 275 264 264 267 283 288 287 290 295 295 295 297 295 293 294 292 293 290 287 289 288 282 276 278 281 281 280 278 278 278 278 277 268 267 271 265 244 223 202 190 186
72 311 292 291 281 280 282 281 285 288 290 292 291 292 293 292 290 288 288 287 287 286 287 287 282 277 274 278 278 277 276 277 276 274 277 269 259 257 254 245 225 205 192 186
341 294 308 303 291 291 298 299 297 295 293 290 289 291 292 293 291 290 289 287 285 284 285 284 282 279 278 277 275 275 275 276 275 271 272 270 259 250 246 239 227 209 197 187
252 261 262 278 285 295 296 293 294 296 296 287 285 289 293 294 292 291 291 290 289 287 285 285 283 281 279 274 271 272 275 274 273 271 271 267 262 263 245 236 230 218 202 188
249 271 266 274 286 286 284 286 292 293 292 294 293 291 293 294 295 293 292 292 292 291 290 289 288 285 282 276 271 270 269 271 269 267 267 266 258 259 258 251 233 212 194 185
263 276 287 284 287 291 292 293 293 293 293 291 294 297 298 298 298 297 296 295 295 294 293 291 289 287 284 278 272 271 269 272 271 264 261 261 256 253 246 236 229 210 191 180
287 283 275 283 288 293 296 300 303 304 302 301 300 300 301 302 301 299 298 298 298 296 295 293 291 289 286 279 274 273 271 268 265 263 256 254 254 249 239 226 219 196 171 170
290 295 293 296 299 302 306 307 307 305 305 305 306 304 303 302 300 300 300 301 300 298 297 295 291 290 288 282 277 276 271 270 270 262 254 249 248 242 233 221 204 185 175 166
297 298 301 304 306 305 305 305 304 305 307 307 308 307 307 305 304 303 302 301 298 296 294 292 291 291 288 281 276 275 270 269 272 269 254 244 242 237 231 212 193 182 172 166
281 284 291 297 303 308 309 309 307 308 308 307 308 309 309 308 306 305 305 304 302 298 295 292 290 290 285 281 277 271 266 263 260 258 255 244 235 228 225 207 187 174 163 162
303 299 301 302 303 304 305 307 309 309 308 309 310 309 307 306 306 305 306 305 303 302 299 297 293 292 287 283 285 269 262 259 257 256 256 241 234 228 221 194 176 168 160 162
303 302 303 303 304 306 308 309 310 311 311 312 311 311 310 310 309 308 307 304 299 296 297 299 298 293 286 283 286 273 264 255 253 255 255 244 234 229 204 179 168 163 161 164
304 305 307 309 310 310 309 310 313 313 314 314 313 313 312 311 310 310 308 306 303 302 303 299 295 288 283 279 280 271 262 251 248 251 258 245 235 213 182 169 165 163 164 166
303 306 309 312 314 315 315 314 314 316 317 317 317 316 315 315 315 312 306 303 304 306 308 304 297 287 282 280 272 262 256 249 248 250 249 240 220 186 170 165 164 164 163 164
304 307 310 313 314 314 315 319 321 322 319 319 318 317 317 316 316 316 317 315 315 313 313 307 304 299 292 285 264 251 247 249 249 247 244 235 206 174 166 163 163 161 160 163
309 310 310 310 314 319 323 325 324 322 319 318 318 318 319 320 320 319 316 315 318 318 320 317 314 312 305 286 260 246 244 247 248 246 244 217 182 166 164 163 161 159 160 161
308 309 315 324 328 327 323 323 324 324 324 325 323 324 325 325 323 324 323 325 328 327 330 330 331 329 324 299 275 265 265 253 244 240 216 181 170 165 160 158 158 157 159 163
312 318 319 317 318 321 325 327 327 327 328 328 329 330 331 330 329 329 330 331 333 334 337 339 341 340 338 325 310 293 280 265 252 233 183 166 161 156 154 155 156 159 161 165
315 318 321 326 328 328 329 328 327 328 329 330 331 331 333 335 337 338 339 340 340 341 343 344 345 343 342 342 348 354 11 20 34 94 129 140 146 150 153 154 157 159 162 165
Height
1508 1505 1505 1508 1510 1511 1514 1517 1521 1519 1523 1525 1523 1521 1518 1515 1511 1508 1504 1500 1497 1493 1490 1487 1483 1479 1476 1472 1468 1464 1460 1456 1452 1450 1448 1447 1446 1445 1444 1442 1440 1438 1436 1433
1506 1502 1504 1511 1514 1515 1518 1519 1520 1522 1526 1524 1522 1520 1517 1514 1510 1506 1503 1499 1495 1492 1488 1485 1481 1477 1473 1469 1464 1460 1455 1451 1446 1443 1441 1440 1439 1439 1439 1438 1437 1435 1434 1432
1515 1507 1506 1521 1523 1521 1524 1525 1524 1526 1528 1524 1521 1519 1516 1512 1508 1505 1501 1498 1494 1490 1486 1482 1478 1474 1470 1465 1461 1456 1451 1446 1441 1437 1435 1433 1433 1433 1433 1433 1433 1432 1432 1431
1518 1512 1521 1533 1525 1524 1525 1527 1526 1526 1526 1524 1522 1517 1513 1509 1506 1502 1499 1495 1491 1487 1482 1478 1474 1470 1465 1461 1456 1452 1447 1442 1437 1433 1430 1428 1426 1426 1427 1427 1428 1428 1428 1429
1523 1522 1526 1528 1526 1527 1527 1526 1528 1527 1524 1521 1518 1514 1509 1507 1504 1500 1496 1491 1486 1481 1477 1472 1468 1464 1459 1455 1450 1446 1441 1437 1433 1429 1425 1422 1420 1420 1420 1421 1421 1423 1424 1426
1524 1522 1527 1535 1528 1526 1527 1526 1528 1526 1523 1520 1516 1514 1507 1503 1499 1494 1489 1484 1479 1474 1469 1464 1460 1456 1451 1447 1443 1439 1435 1431 1427 1424 1420 1417 1414 1413 1413 1413 1415 1417 1419 1422
1529 1528 1534 1535 1529 1525 1531 1532 1527 1524 1521 1517 1514 1511 1503 1497 1493 1488 1483 1477 1472 1467 1461 1457 1453 1448 1442 1438 1434 1431 1427 1423 1420 1417 1414 1410 1408 1406 1405 1405 1407 1410 1413 1417
1532 1532 1538 1535 1530 1533 1534 1527 1524 1521 1517 1512 1508 1502 1496 1491 1486 1480 1475 1470 1465 1459 1453 1449 1445 1440 1433 1429 1426 1422 1418 1415 1412 1409 1406 1403 1401 1398 1398 1398 1399 1402 1406 1411
1537 1540 1537 1534 1532 1531 1528 1525 1521 1517 1512 1507 1501 1495 1490 1484 1479 1473 1467 1462 1456 1451 1444 1439 1436 1431 1425 1420 1416 1412 1408 1405 1402 1400 1398 1396 1393 1391 1390 1391 1391 1393 1398 1403
1537 1535 1534 1531 1530 1528 1525 1521 1516 1512 1506 1501 1495 1489 1483 1476 1470 1464 1459 1453 1447 1441 1435 1429 1425 1420 1415 1410 1406 1402 1398 1395 1392 1390 1388 1386 1385 1384 1382 1382 1383 1385 1389 1396
1537 1535 1531 1528 1527 1524 1520 1516 1511 1506 1501 1496 1489 1482 1475 1468 1461 1455 1449 1443 1438 1431 1424 1418 1414 1409 1404 1400 1396 1391 1388 1384 1382 1380 1378 1376 1375 1375 1374 1374 1375 1378 1382 1388
1538 1533 1532 1527 1523 1519 1515 1510 1505 1499 1493 1488 1482 1475 1467 1460 1453 1446 1439 1433 1427 1420 1414 1407 1402 1397 1393 1389 1385 1381 1377 1374 1372 1370 1368 1367 1366 1365 1365 1366 1367 1371 1376 1382
1534 1531 1528 1523 1519 1515 1510 1504 1499 1493 1487 1480 1473 1467 1459 1451 1443 1436 1429 1423 1416 1409 1403 1396 1391 1386 1381 1378 1374 1371 1367 1365 1363 1361 1359 1358 1357 1357 1356 1358 1360 1364 1370 1377
1530 1527 1523 1519 1514 1509 1504 1498 1492 1485 1479 1473 1465 1457 1450 1442 1434 1427 1419 1412 1406 1398 1392 1386 1380 1374 1370 1367 1363 1360 1357 1355 1353 1351 1350 1350 1349 1350 1350 1351 1353 1356 1363 1370
1527 1524 1519 1514 1509 1503 1498 1491 1484 1477 1470 1463 1456 1449 1441 1433 1424 1416 1409 1402 1395 1388 1381 1375 1369 1363 1360 1356 1353 1350 1347 1345 1344 1343 1342 1342 1342 1342 1343 1345 1347 1351 1357 1365
1523 1519 1515 1509 1503 1497 1491 1484 1477 1469 1462 1454 1447 1439 1432 1424 1415 1406 1399 1392 1384 1376 1370 1364 1358 1353 1350 1346 1343 1340 1338 1337 1336 1334 1333 1334 1335 1336 1337 1339 1341 1346 1352 1359
1518 1513 1508 1503 1497 1491 1485 1479 1471 1463 1454 1446 1438 1430 1422 1413 1404 1396 1388 1381 1374 1367 1360 1354 1348 1344 1340 1337 1335 1332 1330 1329 1328 1327 1327 1328 1328 1329 1331 1333 1337 1342 1349 1356
1516 1511 1506 1500 1493 1485 1478 1471 1464 1456 1447 1439 1430 1422 1413 1404 1395 1386 1378 1370 1363 1356 1350 1344 1339 1335 1331 1329 1327 1325 1324 1323 1322 1322 1322 1322 1324 1325 1327 1330 1334 1340 1347 1354
1512 1507 1501 1495 1489 1481 1473 1465 1456 1448 1440 1431 1422 1413 1404 1396 1387 1378 1369 1361 1353 1346 1339 1335 1330 1327 1324 1322 1320 1319 1318 1318 1317 1317 1317 1318 1319 1321 1324 1327 1332 1338 1344 1351
1507 1502 1496 1489 1482 1475 1467 1458 1450 1441 1432 1423 1414 1405 1396 1387 1378 1369 1361 1353 1346 1339 1332 1327 1323 1319 1317 1316 1315 1314 1313 1313 1313 1313 1314 1315 1316 1318 1322 1326 1331 1337 1343 1350
1502 1496 1490 1483 1475 1468 1461 1452 1443 1433 1424 1416 1408 1398 1389 1379 1371 1362 1353 1344 1337 1331 1325 1320 1316 1313 1312 1311 1310 1310 1310 1310 1310 1311 1311 1312 1314 1317 1321 1325 1330 1336 1342 1349
1497 1491 1484 1477 1469 1461 1453 1445 1437 1427 1418 1410 1401 1392 1382 1372 1363 1355 1347 1340 1331 1325 1320 1315 1311 1309 1308 1307 1307 1307 1307 1307 1308 1309 1309 1311 1313 1316 1320 1325 1330 1336 1342 1349
1492 1486 1479 1471 1464 1455 1446 1439 1431 1422 1413 1405 1396 1386 1377 1368 1359 1350 1341 1334 1327 1321 1316 1311 1309 1307 1305 1305 1305 1305 1306 1306 1307 1307 1308 1310 1313 1317 1321 1326 1331 1337 1343 1349
1487 1480 1474 1467 1459 1450 1441 1433 1426 1418 1410 1401 1393 1383 1374 1363 1354 1347 1339 1331 1324 1319 1314 1310 1308 1306 1305 1304 1304 1304 1305 1305 1306 1307 1308 1310 1314 1318 1323 1327 1333 1338 1344 1350
1483 1476 1469 1461 1453 1446 1438 1430 1421 1414 1406 1398 1389 1380 1371 1362 1353 1344 1337 1330 1324 1318 1314 1310 1308 1306 1305 1305 1304 1304 1304 1304 1305 1306 1309 1312 1316 1320 1325 1330 1335 1340 1346 1351
1479 1472 1466 1459 1452 1444 1436 1428 1420 1412 1404 1395 1386 1377 1368 1360 1351 1343 1337 1330 1325 1320 1316 1313 1310 1308 1307 1306 1305 1305 1305 1305 1306 1308 1311 1314 1319 1323 1328 1333 1338 1343 1348 1353
1475 1469 1462 1455 1449 1442 1435 1427 1420 1411 1403 1395 1385 1376 1368 1359 1351 1344 1338 1332 1327 1323 1319 1316 1313 1311 1309 1308 1307 1307 1307 1308 1309 1311 1315 1318 1323 1327 1332 1336 1341 1346 1350 1355